Home > Weather > Benghazi > Past weeks

Flag for Libya Past Weather in Benghazi, Libya — Yesterday and Last 2 Weeks

Now
84 °F

Passing clouds.


Feels Like: 86 °F
Forecast: 75 / 87 °F
Wind: 7 mph from Southeast

Location: Souda Airport

Current Time: May 30, 2016 at 10:53:00 AM

Latest Report: May 30, 2016 at 9:50 AM


Visibility: N/A

Pressure: 29.95 "Hg

Humidity: 51%

Dew Point: 64 °F

Location of BenghaziLocation

Past Weather in Benghazi — Graph

°F

Benghazi Temperature Yesterday

Maximum temperature yesterday: 84 °F (at 11:20 AM)
Minimum temperature yesterday: 66 °F (at 1:50 AM)
Average temperature yesterday: 75 °F

High & Low Weather Summary for the Past Weeks

 TemperatureHumidityPressure
High84 °F (May 29, 11:20 AM)94% (May 15, 1:50 PM)30.07 "Hg (May 15, 1:50 PM)
Low55 °F (May 19, 4:20 AM)32% (May 25, 1:20 PM)29.65 "Hg (May 21, 4:50 AM)
Average69 °F65%29.93 "Hg
* Reported May 15 9:20 AM — May 30 9:50 AM, Benghazi, Weather by CustomWeather, © 2016

Note: Actual official high and low records may vary slightly from our data, if they occured in-between our weather recording intervals... More about our weather records

Advertising

Benghazi Weather History for the Previous 24 Hours

Scroll right to see more
 ConditionsComfort  
Time TempWeatherWind HumidityBarometerVisibility
9:50 AM
Mon, May 30
84 °FPassing clouds.7 mph51%29.95 "HgN/A
9:20 AM82 °FPassing clouds.5 mph51%29.95 "HgN/A
8:50 AM82 °FPassing clouds.6 mph51%29.95 "HgN/A
8:20 AM79 °FSunny.No wind48%29.95 "Hg10 mi
7:50 AM79 °FSunny.No wind48%29.95 "Hg10 mi
7:20 AM75 °FSunny.No wind47%29.92 "Hg10 mi
6:50 AM75 °FPassing clouds.No wind47%29.92 "HgN/A
6:20 AM72 °FPassing clouds.No wind47%29.92 "HgN/A
5:50 AM72 °FClear.6 mph57%29.92 "Hg10 mi
5:20 AM70 °FClear.6 mph57%29.92 "Hg10 mi
4:50 AM70 °FClear.6 mph57%29.92 "Hg10 mi
4:20 AM68 °FClear.6 mph64%29.92 "Hg10 mi
3:50 AM68 °FClear.No wind64%29.92 "Hg10 mi
3:20 AM68 °FClear.No wind64%29.92 "Hg10 mi
2:50 AM68 °FClear.No wind64%29.92 "Hg10 mi
2:20 AM70 °FClear.No wind69%29.92 "Hg10 mi
1:50 AM70 °FClear.No wind69%29.92 "Hg10 mi
1:20 AM72 °FClear.6 mph50%29.92 "Hg10 mi
12:50 AM72 °FClear.5 mph50%29.95 "Hg10 mi
12:20 AM70 °FClear.No wind69%29.95 "Hg10 mi
11:50 PM
Sun, May 29
70 °FClear.No wind69%29.95 "Hg10 mi
11:20 PM72 °FClear.No wind78%29.95 "Hg10 mi
10:50 PM72 °FClear.No wind78%29.98 "Hg10 mi
10:20 PM73 °FClear.No wind50%29.95 "Hg10 mi
9:50 PM73 °FClear.No wind50%29.95 "Hg10 mi
9:20 PM73 °FClear.No wind50%29.95 "Hg10 mi
8:50 PM73 °FClear.No wind50%29.95 "Hg10 mi
8:20 PM73 °FSunny.6 mph50%29.92 "Hg10 mi
7:50 PM73 °FSunny.9 mph50%29.92 "Hg10 mi
7:20 PM73 °FSunny.10 mph47%29.92 "Hg10 mi
6:50 PM75 °FSunny.9 mph50%29.92 "Hg10 mi
6:20 PM75 °FSunny.12 mph47%29.95 "Hg10 mi
5:50 PM77 °FSunny.13 mph47%29.95 "Hg10 mi
5:20 PM79 °FSunny.8 mph42%29.95 "Hg10 mi
4:50 PM81 °FSunny.9 mph45%29.95 "Hg10 mi
4:20 PM84 °FSunny.9 mph35%29.95 "Hg10 mi
3:50 PM84 °FSunny.6 mph35%29.95 "Hg10 mi
3:20 PM82 °FSunny.6 mph37%29.95 "Hg10 mi
2:50 PM79 °FSunny.6 mph45%29.95 "Hg10 mi
2:20 PM79 °FSunny.18 mph48%29.92 "Hg10 mi
1:50 PM82 °FSunny.12 mph45%29.98 "Hg10 mi
1:20 PM82 °FSunny.14 mph42%29.98 "Hg10 mi
12:50 PM82 °FSunny.9 mph45%29.98 "Hg10 mi
12:20 PM84 °FSunny.9 mph43%29.98 "Hg10 mi
11:50 AM82 °FSunny.7 mph42%29.98 "Hg10 mi
11:20 AM84 °FSunny.8 mph35%29.98 "Hg10 mi
10:50 AM82 °FSunny.12 mph37%29.98 "Hg10 mi
10:20 AM82 °FSunny.12 mph40%29.98 "Hg10 mi
Weather by CustomWeather, © 2016

See weather overviewHow to use our weather pages